30.06.2024;16:00;11
30.06.2024;15:00;11
30.06.2024;14:00;9
30.06.2024;13:00;12
30.06.2024;12:00;18
30.06.2024;11:00;22
30.06.2024;10:00;31
30.06.2024;09:00;34
30.06.2024;08:00;35
30.06.2024;07:00;39
30.06.2024;06:00;46
30.06.2024;05:00;42
30.06.2024;04:00;31
30.06.2024;03:00;28
30.06.2024;02:00;30
30.06.2024;01:00;31
29.06.2024;24:00;40
29.06.2024;23:00;40
29.06.2024;22:00;29
29.06.2024;21:00;21
29.06.2024;20:00;25
29.06.2024;19:00;27
29.06.2024;18:00;24
29.06.2024;17:00;21
29.06.2024;16:00;20
29.06.2024;15:00;19
29.06.2024;14:00;17
29.06.2024;13:00;15
29.06.2024;12:00;12
29.06.2024;11:00;11
29.06.2024;10:00;14
29.06.2024;09:00;21
29.06.2024;08:00;23
29.06.2024;07:00;22
29.06.2024;06:00;20
29.06.2024;05:00;28
29.06.2024;04:00;29
29.06.2024;03:00;23
29.06.2024;02:00;18
29.06.2024;01:00;15
28.06.2024;24:00;21
28.06.2024;23:00;28
28.06.2024;22:00;20
28.06.2024;21:00;16
28.06.2024;20:00;15
28.06.2024;19:00;14
28.06.2024;18:00;12
28.06.2024;17:00;10
28.06.2024;16:00;9
28.06.2024;15:00;10
28.06.2024;14:00;10
28.06.2024;13:00;10
28.06.2024;12:00;9
28.06.2024;11:00;9
28.06.2024;10:00;11
28.06.2024;09:00;10
28.06.2024;08:00;10
28.06.2024;07:00;15
28.06.2024;06:00;20
28.06.2024;05:00;15
28.06.2024;04:00;12
28.06.2024;03:00;14
28.06.2024;02:00;13
28.06.2024;01:00;14
27.06.2024;24:00;12
27.06.2024;23:00;12
27.06.2024;22:00;10
27.06.2024;21:00;20
27.06.2024;20:00;21
27.06.2024;19:00;17
27.06.2024;18:00;17
27.06.2024;17:00;14
27.06.2024;16:00;14
27.06.2024;15:00;12
27.06.2024;14:00;11
27.06.2024;13:00;11
27.06.2024;12:00;10
27.06.2024;11:00;8
27.06.2024;10:00;8
27.06.2024;09:00;10
27.06.2024;08:00;12
27.06.2024;07:00;13
27.06.2024;06:00;14
27.06.2024;05:00;12
27.06.2024;04:00;12
27.06.2024;03:00;13
27.06.2024;02:00;13
27.06.2024;01:00;13
26.06.2024;24:00;11
26.06.2024;23:00;11
26.06.2024;22:00;10
26.06.2024;21:00;9
26.06.2024;20:00;9
26.06.2024;19:00;15
26.06.2024;18:00;19
26.06.2024;17:00;15
26.06.2024;16:00;13
26.06.2024;15:00;12
26.06.2024;14:00;12
26.06.2024;13:00;12
26.06.2024;12:00;13
26.06.2024;11:00;12
26.06.2024;10:00;12
26.06.2024;09:00;16
26.06.2024;08:00;19
26.06.2024;07:00;23
26.06.2024;06:00;25
26.06.2024;05:00;29
26.06.2024;04:00;29
26.06.2024;03:00;32
26.06.2024;02:00;29
26.06.2024;01:00;27
25.06.2024;24:00;27
25.06.2024;23:00;28
25.06.2024;22:00;28
25.06.2024;21:00;29
25.06.2024;20:00;26
25.06.2024;19:00;25
25.06.2024;18:00;24
25.06.2024;17:00;20
25.06.2024;16:00;19
25.06.2024;15:00;17
25.06.2024;14:00;16
25.06.2024;13:00;13
25.06.2024;12:00;12
25.06.2024;11:00;13
25.06.2024;10:00;10
25.06.2024;09:00;12
25.06.2024;08:00;13
25.06.2024;07:00;14
25.06.2024;06:00;14
25.06.2024;05:00;16
25.06.2024;04:00;15
25.06.2024;03:00;16
25.06.2024;02:00;13
25.06.2024;01:00;10
